Wetbulb
56.07 56.72 56.55 56.11 56.03 55.68 55.59 55.98 55.77 55.36 55.26 55.11 54.71 54.46 54.50 54.58 54.13 49.27 44.36 46.92 52.16 57.30 59.45 56.27 56.06 57.81 58.42 55.76 56.04 55.44 47.32 43.97 43.90 45.24 45.80 50.85 50.24 54.25 55.86 55.75 56.17 57.54 55.81 56.97 56.53
55.82 55.74 56.21 56.37 56.46 56.10 55.80 55.69 55.48 55.64 55.29 55.13 54.87 54.51 54.40 54.49 48.59 44.87 50.82 54.78 56.08 55.13 51.31 49.79 50.09 53.21 51.90 53.02 53.18 50.92 46.53 46.06 49.13 49.45 47.23 50.49 49.79 51.61 52.66 54.40 55.66 54.67 58.08 55.85 58.80
56.11 56.22 55.81 55.89 55.97 56.00 55.88 55.58 55.56 55.30 55.31 55.00 54.79 54.41 54.41 52.28 40.87 39.89 55.43 57.08 54.95 54.28 50.20 51.01 51.43 50.50 47.11 51.29 51.46 50.97 46.16 50.28 49.91 51.09 51.32 51.08 49.86 51.26 52.01 51.20 55.36 56.04 55.94 55.27 57.66
55.83 55.79 55.86 55.61 55.55 55.61 55.51 55.47 55.04 55.07 55.10 54.76 54.69 54.29 54.12 48.30 27.28 44.44 55.08 54.68 54.25 50.76 50.77 47.91 46.52 45.13 44.23 45.12 50.54 46.57 49.41 50.97 51.99 53.08 51.86 50.30 51.20 49.62 50.49 52.92 57.92 59.35 57.16 55.11 56.72
56.20 55.84 55.53 55.17 55.08 54.97 55.07 55.00 54.60 54.72 54.76 54.65 54.07 53.76 48.06 40.21 40.01 47.76 52.87 51.47 48.95 48.21 47.39 46.58 44.52 42.95 41.82 45.66 46.97 47.20 49.23 50.98 52.10 51.53 52.13 52.79 50.78 49.83 50.46 53.80 56.08 59.62 57.24 55.08 56.39
56.34 56.16 55.36 54.86 54.51 54.60 54.74 54.68 54.35 54.37 54.42 54.33 53.67 52.58 43.45 34.58 45.91 47.88 47.87 47.10 46.35 45.75 46.44 46.82 45.55 46.28 43.68 44.45 44.98 48.77 48.65 49.59 50.80 51.40 51.38 50.58 50.80 51.01 50.31 53.90 56.83 57.65 56.25 55.56 55.43
55.95 55.63 54.90 54.40 54.17 54.29 54.32 54.25 54.10 54.11 54.09 53.77 53.12 49.84 42.64 38.44 45.66 46.54 46.24 45.22 46.70 45.45 42.85 45.05 46.20 45.03 45.03 42.14 47.21 48.28 45.42 47.35 48.47 49.10 49.45 51.63 47.69 47.69 52.49 57.06 55.63 55.75 55.07 54.55 55.09
54.97 54.68 54.09 53.77 53.67 53.70 53.78 53.63 53.73 53.80 53.74 53.47 52.47 46.87 37.19 45.62 45.16 46.67 47.08 45.07 46.94 46.91 45.22 45.89 46.76 44.71 42.76 46.10 45.64 44.08 45.39 40.58 46.40 48.36 49.57 49.53 41.73 48.81 52.81 55.15 54.19 54.90 53.23 52.78 54.66
54.36 54.03 53.61 53.31 53.18 53.15 53.05 53.25 53.77 53.55 53.64 53.10 44.53 40.26 35.14 47.43 42.09 46.17 46.99 42.62 44.05 45.05 45.29 47.63 46.91 41.73 42.59 39.27 37.71 41.77 35.70 39.38 41.98 48.56 49.05 48.07 44.41 49.17 52.72 53.69 54.12 54.37 54.27 52.88 53.20
54.00 53.65 53.07 52.84 52.84 53.17 53.28 53.01 52.67 51.38 48.30 48.24 45.92 36.20 38.60 37.37 42.44 43.20 44.22 43.10 39.69 40.09 41.45 42.14 40.28 35.61 38.26 36.37 30.27 33.84 36.04 37.94 38.89 41.82 47.25 46.57 46.16 49.27 51.13 53.00 54.22 54.50 54.86 53.68 53.07
53.65 53.42 52.78 52.79 53.15 52.68 46.34 41.47 37.24 32.74 38.39 33.16 34.05 36.58 38.23 41.97 43.45 40.97 43.69 42.02 42.07 39.51 33.06 37.92 32.32 28.69 32.97 36.79 38.99 38.89 38.04 36.56 38.78 42.68 43.95 43.01 43.30 47.55 50.07 52.94 53.78 54.88 54.70 54.55 54.13
53.42 53.40 53.37 53.48 52.36 50.83 44.10 39.70 39.63 40.00 33.53 38.61 38.98 38.85 40.92 41.29 35.82 40.03 44.45 37.42 36.65 31.59 35.20 33.47 28.70 33.86 36.74 38.32 38.35 39.71 37.77 37.13 38.49 42.65 41.85 42.07 42.24 46.36 48.61 49.81 53.33 54.76 54.92 54.72 55.01
53.30 52.99 52.67 52.45 51.31 44.48 41.48 40.52 44.70 41.44 29.89 32.06 36.69 36.10 36.91 40.50 36.48 37.55 40.93 38.34 34.26 31.09 31.42 29.81 31.42 37.38 36.38 36.33 32.54 37.96 36.30 36.43 36.08 39.84 41.83 40.16 40.26 44.98 48.43 50.68 52.97 55.30 56.21 55.90 55.57
52.40 51.71 52.29 51.33 43.94 41.39 39.81 44.72 44.53 39.57 17.44 25.27 31.32 37.53 40.33 40.43 34.78 42.57 42.76 39.19 36.01 32.37 33.22 32.62 35.85 33.61 33.15 34.73 34.11 31.95 39.56 38.72 37.82 36.94 31.76 40.66 33.21 43.28 46.01 46.93 51.16 53.94 55.47 55.86 56.52
51.79 52.04 51.96 49.53 40.87 38.87 42.04 43.84 42.99 34.18 4.34 27.18 31.23 41.30 37.85 33.45 35.19 36.44 42.63 40.36 32.89 32.57 31.46 31.21 33.80 33.60 31.69 34.37 39.45 35.85 40.30 38.61 38.22 36.07 35.29 37.22 35.84 39.58 45.65 44.04 47.73 52.96 54.57 56.11 56.88
51.16 50.90 49.73 44.45 42.18 41.80 43.21 41.55 35.45 16.13 3.97 23.93 30.58 30.14 30.19 33.32 33.50 36.40 36.66 41.45 39.91 33.79 34.13 32.58 40.66 38.15 38.25 41.12 40.69 41.85 39.82 38.79 36.16 35.11 28.14 35.00 36.89 36.63 41.74 43.84 47.11 52.08 54.15 55.56 56.12
50.69 50.74 46.26 44.28 37.40 42.66 41.14 32.90 17.07 7.07 23.27 19.88 25.96 29.05 27.89 28.67 29.56 31.21 30.89 30.89 29.18 26.75 27.21 33.79 34.66 37.84 40.29 38.18 41.67 40.63 35.92 29.26 27.42 26.35 27.06 36.84 35.85 39.08 44.19 47.14 48.53 50.96 53.74 54.87 56.06
50.53 48.92 45.41 42.67 41.63 41.15 33.72 23.48 6.20 8.52 11.16 27.58 28.49 27.28 23.93 27.47 27.92 28.20 28.13 28.02 33.08 31.50 28.41 27.56 26.62 35.91 39.05 38.20 37.21 37.46 34.67 27.91 22.25 26.17 29.97 34.96 31.61 38.41 43.46 49.01 50.82 52.19 54.62 55.38 54.26
47.08 40.73 40.29 40.90 41.84 36.83 27.76 8.87 11.10 13.18 25.14 26.38 25.05 15.53 14.19 23.93 24.36 25.11 25.12 28.18 31.32 32.15 26.80 25.88 29.03 39.60 37.26 38.89 41.34 37.35 34.91 37.15 31.53 31.69 29.16 32.70 34.40 41.47 45.74 47.02 47.29 51.95 54.08 53.93 52.43
38.16 37.20 38.00 41.40 40.19 32.86 20.97 17.52 13.04 26.28 28.14 23.78 13.25 16.87 10.72 17.11 19.49 20.85 24.25 31.06 29.67 32.56 33.63 31.47 27.86 36.51 37.20 38.77 42.89 39.95 40.71 33.80 33.33 25.87 24.85 31.93 32.49 34.76 41.47 44.79 46.59 50.83 52.59 50.48 48.75
36.43 29.34 36.96 39.77 35.62 26.51 13.22 12.08 20.43 28.82 29.58 21.00 14.95 18.70 16.12 18.58 21.95 19.93 24.47 29.57 31.47 30.33 33.36 32.35 32.08 30.71 35.44 32.67 33.79 38.28 36.46 37.19 36.59 34.19 28.85 28.35 30.55 36.75 36.18 46.05 47.20 48.15 47.20 45.56 44.64
32.06 21.29 36.65 36.67 23.22 22.19 11.27 17.23 30.39 27.83 30.03 29.01 27.86 27.20 17.48 20.60 20.37 20.21 23.82 27.87 33.64 31.41 27.80 31.95 31.22 26.96 30.18 36.60 38.77 37.73 37.41 37.70 31.56 30.16 31.27 30.75 32.18 40.07 39.36 46.21 44.21 42.98 43.04 43.78 44.01
31.88 29.50 36.78 33.55 13.48 11.72 20.61 24.38 28.16 26.95 28.06 28.94 27.08 26.98 25.40 22.40 17.95 17.42 24.85 31.54 32.95 30.18 28.83 32.42 29.34 21.61 25.74 34.05 37.88 34.47 35.57 38.70 36.92 33.85 29.71 29.51 32.13 41.55 43.14 42.89 42.65 41.12 41.69 41.83 40.86
27.14 19.09 23.79 27.16 26.97 24.58 22.88 19.39 20.78 29.44 29.96 31.17 29.31 30.54 25.00 17.97 24.38 22.58 25.68 30.21 31.72 31.49 35.60 35.66 31.20 28.73 24.72 28.80 32.95 33.49 35.56 38.10 36.61 31.00 31.50 31.40 31.91 37.81 39.43 38.80 39.49 39.67 40.32 40.42 39.86
26.63 19.54 23.44 12.91 16.33 25.18 25.59 24.61 22.88 21.48 31.43 31.53 26.99 23.69 25.63 22.14 17.61 22.91 25.73 27.54 29.70 32.04 30.25 31.03 27.37 30.48 31.06 32.24 33.27 33.28 34.19 35.99 36.34 36.38 31.76 32.85 31.49 37.68 39.46 38.96 38.50 38.81 38.68 38.35 37.86
24.37 21.15 27.88 25.83 26.60 25.62 26.55 24.49 25.32 27.61 27.67 23.55 20.38 26.52 29.21 24.32 20.87 23.40 26.67 26.86 25.29 27.58 26.63 29.05 26.12 28.47 26.89 30.42 31.72 30.54 32.35 34.85 37.21 37.70 35.92 32.87 32.15 37.33 39.26 39.13 37.96 38.12 38.14 37.36 37.00
29.32 29.75 26.76 20.51 22.55 20.45 23.49 26.62 27.03 28.36 27.83 28.97 29.95 27.56 26.76 24.55 29.17 31.31 31.45 30.91 29.85 26.27 24.52 25.35 25.94 26.71 19.46 28.37 29.02 24.50 29.35 32.55 37.16 38.75 38.15 31.10 33.00 38.72 37.72 38.29 37.75 37.62 38.24 37.92 38.47
MSLP
1021.15 1021.04 1020.89 1020.71 1020.41 1020.42 1020.40 1020.30 1020.30 1020.26 1020.22 1020.18 1019.97 1019.68 1019.42 1019.15 1018.81 1018.74 1018.18 1016.62 1016.22 1015.89 1015.90 1015.88 1015.81 1015.45 1015.24 1014.94 1014.54 1014.14 1013.90 1012.66 1012.41 1011.87 1011.39 1011.02 1010.88 1010.47 1010.25 1010.49 1010.90 1011.90 1012.18 1012.10 1013.01
1020.85 1020.81 1020.76 1020.58 1020.37 1020.14 1020.09 1020.04 1019.97 1020.05 1020.04 1020.04 1019.96 1019.73 1019.35 1019.07 1018.72 1018.04 1016.63 1016.19 1016.03 1015.93 1016.23 1016.24 1016.17 1015.89 1015.36 1014.63 1014.36 1013.88 1012.53 1011.56 1011.40 1011.26 1010.88 1010.99 1011.08 1010.78 1010.81 1010.76 1011.33 1011.68 1012.22 1012.49 1013.07
1020.48 1020.48 1020.46 1020.38 1020.31 1020.10 1019.96 1019.87 1019.77 1019.88 1019.92 1019.82 1019.71 1019.53 1019.32 1019.05 1018.51 1016.92 1015.83 1015.60 1015.84 1015.72 1016.03 1016.38 1016.45 1016.46 1015.56 1014.65 1013.63 1012.83 1011.40 1011.54 1010.91 1010.85 1011.12 1011.01 1010.87 1010.60 1010.49 1010.61 1010.47 1010.87 1012.31 1013.19 1013.04
1020.22 1020.24 1020.19 1020.07 1020.09 1019.96 1019.82 1019.74 1019.62 1019.63 1019.76 1019.71 1019.53 1019.39 1019.29 1019.34 1018.51 1016.04 1015.76 1015.72 1015.73 1015.67 1015.89 1016.16 1016.45 1016.43 1015.38 1014.25 1013.31 1012.73 1011.81 1011.43 1010.91 1010.66 1010.76 1010.84 1010.91 1010.60 1010.57 1009.95 1009.49 1010.04 1011.61 1013.31 1012.86
1019.93 1019.91 1020.14 1019.88 1020.01 1019.79 1019.67 1019.61 1019.50 1019.48 1019.62 1019.60 1019.53 1019.48 1019.65 1019.67 1017.92 1016.13 1016.02 1015.91 1015.80 1015.80 1015.89 1015.90 1016.26 1016.41 1015.28 1014.23 1013.62 1012.17 1011.80 1011.31 1010.80 1010.64 1010.63 1011.00 1010.82 1010.80 1010.43 1010.02 1010.07 1010.31 1011.73 1012.74 1013.67
1019.58 1019.63 1019.88 1019.77 1019.74 1019.59 1019.48 1019.50 1019.38 1019.37 1019.43 1019.40 1019.40 1019.55 1019.77 1019.39 1016.71 1016.10 1016.15 1016.20 1016.01 1015.82 1015.71 1015.81 1015.81 1015.75 1015.51 1014.41 1013.58 1012.06 1011.63 1011.13 1010.78 1010.56 1010.65 1010.89 1010.58 1011.02 1010.13 1009.97 1010.25 1010.60 1010.82 1012.10 1013.03
1019.43 1019.59 1019.72 1019.66 1019.63 1019.49 1019.41 1019.37 1019.34 1019.22 1019.24 1019.31 1019.22 1019.38 1019.42 1017.70 1016.39 1016.14 1016.19 1016.01 1015.67 1015.81 1015.88 1015.67 1015.77 1015.77 1015.23 1014.28 1013.08 1012.32 1011.92 1011.10 1010.67 1010.62 1010.62 1010.94 1010.44 1008.89 1009.91 1010.46 1010.66 1010.71 1010.20 1011.78 1012.49
1019.67 1019.59 1019.61 1019.61 1019.50 1019.43 1019.42 1019.29 1019.11 1018.98 1019.02 1019.03 1019.07 1019.39 1018.60 1016.44 1016.08 1015.96 1015.55 1015.60 1015.18 1015.21 1015.51 1015.34 1015.38 1015.49 1015.36 1014.48 1012.88 1012.09 1011.56 1010.40 1009.97 1010.21 1010.45 1010.92 1007.97 1008.74 1009.34 1010.09 1010.44 1010.64 1010.78 1011.62 1012.09
1020.01 1019.68 1019.48 1019.55 1019.65 1019.45 1019.28 1019.02 1018.78 1018.82 1018.82 1018.79 1019.17 1019.31 1018.01 1016.07 1015.74 1015.07 1015.04 1015.17 1014.90 1014.82 1014.79 1014.90 1015.12 1015.21 1014.99 1014.47 1013.49 1012.05 1010.86 1009.95 1009.96 1009.56 1009.74 1009.74 1008.35 1008.16 1008.30 1009.19 1009.93 1010.43 1010.83 1011.07 1012.09
1020.13 1019.93 1019.89 1019.66 1019.64 1019.39 1019.14 1018.66 1018.54 1018.70 1018.78 1018.75 1019.02 1019.55 1017.47 1016.15 1015.43 1014.97 1014.51 1014.57 1014.80 1014.67 1014.74 1014.78 1015.00 1014.84 1014.41 1013.99 1011.54 1011.08 1010.95 1010.47 1009.87 1009.74 1009.74 1009.17 1008.45 1008.12 1007.86 1008.27 1009.01 1009.66 1010.50 1010.83 1011.38
1020.33 1020.21 1019.97 1019.85 1019.53 1019.40 1019.21 1018.90 1019.55 1019.52 1019.37 1019.02 1018.60 1018.26 1017.05 1015.87 1015.41 1014.52 1014.08 1014.15 1014.32 1014.60 1014.82 1014.77 1014.87 1013.96 1012.90 1013.15 1012.45 1011.47 1010.64 1010.42 1010.34 1009.79 1009.68 1008.81 1008.60 1008.21 1007.89 1008.18 1008.44 1009.07 1009.93 1010.27 1010.71
1020.48 1020.42 1020.29 1019.98 1019.58 1019.41 1019.73 1020.58 1021.23 1021.54 1020.18 1018.53 1018.07 1017.95 1016.79 1016.25 1015.52 1014.48 1014.06 1014.51 1014.34 1014.34 1014.27 1014.54 1013.65 1012.53 1013.14 1012.84 1012.39 1010.62 1010.67 1010.35 1010.52 1010.15 1010.07 1009.05 1007.90 1007.72 1007.06 1007.78 1007.81 1008.42 1008.74 1009.88 1010.35
1020.83 1020.52 1020.54 1020.20 1019.69 1019.85 1020.78 1021.49 1021.34 1021.32 1021.12 1018.42 1017.48 1016.88 1016.07 1016.02 1015.37 1014.17 1014.16 1013.98 1014.12 1013.92 1013.69 1013.41 1011.64 1012.12 1012.66 1011.92 1012.12 1010.26 1010.12 1010.13 1010.42 1010.15 1009.88 1008.90 1007.38 1006.67 1006.35 1007.51 1007.50 1007.55 1007.74 1008.70 1009.12
1021.18 1020.82 1020.66 1020.10 1020.20 1020.55 1021.16 1021.47 1021.29 1021.45 1021.53 1018.90 1017.28 1016.09 1015.85 1015.84 1015.11 1013.85 1013.25 1013.89 1013.43 1013.20 1012.78 1011.88 1011.27 1011.34 1011.14 1010.93 1010.90 1009.79 1010.32 1010.00 1010.31 1010.13 1009.59 1008.40 1007.22 1005.64 1005.83 1006.79 1007.08 1007.05 1007.59 1008.26 1008.79
1021.28 1021.10 1020.77 1020.29 1020.84 1020.97 1021.54 1021.26 1021.11 1021.72 1021.76 1019.05 1017.34 1015.86 1015.97 1016.32 1015.24 1013.48 1012.70 1012.70 1013.04 1012.94 1013.31 1011.23 1009.79 1009.79 1010.53 1008.80 1009.42 1008.63 1009.02 1009.46 1009.84 1010.02 1009.61 1008.51 1007.81 1005.09 1005.64 1006.17 1006.67 1006.53 1007.48 1007.97 1008.45
1021.52 1021.28 1020.93 1021.06 1021.24 1021.26 1021.09 1020.94 1021.38 1023.11 1022.01 1019.75 1018.21 1017.22 1017.01 1016.17 1015.53 1014.08 1012.94 1012.22 1011.61 1012.00 1011.62 1010.82 1009.72 1009.60 1008.56 1007.89 1008.32 1007.80 1008.39 1009.48 1009.99 1009.77 1009.03 1007.20 1006.83 1004.76 1004.18 1004.19 1005.96 1006.32 1006.95 1007.61 1008.53
1021.60 1021.60 1021.42 1021.48 1021.77 1021.20 1021.08 1021.49 1023.15 1023.99 1022.61 1021.22 1019.99 1019.09 1018.43 1017.23 1016.18 1015.27 1014.20 1013.05 1012.72 1011.81 1010.70 1009.68 1009.17 1008.59 1008.25 1007.36 1007.84 1007.68 1008.32 1009.06 1009.32 1009.23 1007.84 1006.48 1006.43 1004.90 1003.19 1003.34 1004.86 1005.73 1006.49 1007.38 1008.24
1021.63 1021.66 1021.85 1021.66 1021.62 1021.43 1021.62 1022.84 1024.62 1024.83 1024.03 1022.54 1021.42 1020.37 1019.67 1018.55 1017.50 1016.57 1015.20 1014.01 1013.15 1012.84 1011.66 1009.93 1009.15 1007.91 1007.28 1006.94 1006.47 1007.05 1007.22 1007.42 1008.12 1008.38 1007.51 1006.96 1005.98 1004.57 1003.79 1002.72 1004.24 1005.57 1006.28 1007.54 1008.68
1021.66 1022.10 1022.10 1021.76 1021.57 1021.68 1022.58 1024.36 1025.11 1025.09 1024.34 1023.63 1022.49 1021.96 1021.14 1020.03 1019.38 1018.08 1016.77 1015.03 1014.09 1013.54 1012.84 1011.17 1009.11 1007.95 1007.67 1007.53 1006.64 1006.91 1007.04 1007.01 1006.87 1008.12 1008.05 1006.86 1006.08 1004.92 1004.09 1003.35 1004.81 1005.89 1006.61 1007.84 1009.07
1022.39 1022.67 1022.33 1021.92 1021.67 1022.30 1023.60 1025.23 1025.24 1024.54 1024.04 1024.06 1024.41 1023.78 1023.29 1021.53 1020.66 1019.33 1017.54 1015.40 1014.98 1014.07 1013.20 1011.65 1009.79 1008.40 1007.69 1006.70 1006.00 1005.75 1006.45 1006.71 1008.11 1007.98 1007.16 1006.60 1006.31 1005.79 1004.87 1004.18 1005.28 1006.44 1007.56 1008.64 1009.71
1022.77 1023.31 1022.27 1021.96 1021.92 1023.28 1025.14 1025.60 1024.86 1023.91 1023.73 1024.06 1024.20 1024.17 1023.82 1022.97 1021.57 1020.62 1018.83 1016.19 1015.47 1014.18 1013.23 1012.46 1010.83 1009.49 1008.56 1008.04 1007.13 1006.42 1006.14 1006.78 1007.64 1007.53 1006.83 1006.53 1006.91 1006.74 1006.08 1005.61 1005.77 1007.07 1008.33 1009.60 1010.65
1023.57 1024.15 1022.62 1022.11 1023.63 1025.29 1026.03 1025.31 1024.54 1023.69 1023.23 1023.32 1023.59 1023.66 1023.97 1023.46 1022.33 1021.12 1020.13 1018.02 1015.98 1015.17 1014.42 1013.04 1011.62 1010.21 1009.11 1008.36 1007.69 1007.00 1006.72 1006.84 1007.50 1007.41 1006.93 1006.71 1007.33 1007.03 1006.58 1006.48 1007.02 1008.52 1009.95 1010.82 1011.59
1024.68 1024.69 1023.27 1023.29 1024.94 1026.23 1025.93 1025.23 1024.45 1023.59 1023.24 1023.22 1023.30 1023.47 1023.79 1023.68 1023.04 1021.40 1020.13 1018.18 1017.38 1016.48 1015.32 1013.76 1012.42 1011.09 1009.73 1009.17 1008.45 1008.20 1007.93 1007.76 1007.45 1007.53 1007.22 1007.08 1007.86 1007.61 1007.48 1007.82 1008.78 1009.81 1010.96 1011.84 1012.85
1025.39 1025.80 1025.26 1025.56 1026.24 1026.26 1025.90 1025.40 1024.43 1023.46 1023.11 1023.18 1023.33 1023.22 1023.68 1023.62 1023.07 1021.58 1019.93 1018.85 1017.76 1017.11 1015.87 1014.50 1013.59 1012.73 1012.02 1011.20 1010.28 1009.25 1008.64 1008.05 1007.75 1007.76 1007.74 1008.24 1008.47 1008.38 1008.57 1009.15 1009.93 1010.86 1011.74 1012.59 1013.46
1025.85 1027.28 1027.62 1027.31 1026.84 1026.41 1025.78 1024.81 1024.44 1023.69 1023.00 1022.99 1023.23 1023.55 1023.77 1023.76 1023.20 1022.20 1020.66 1018.99 1018.07 1017.71 1016.78 1015.95 1014.65 1013.51 1012.55 1011.90 1011.07 1010.27 1009.50 1008.88 1008.35 1008.31 1008.22 1008.59 1009.06 1009.15 1009.36 1010.11 1011.01 1011.53 1012.39 1013.21 1013.95
1025.82 1026.79 1027.39 1027.46 1026.78 1026.44 1025.53 1024.79 1024.40 1023.77 1023.36 1023.24 1023.65 1023.35 1023.57 1023.74 1023.55 1022.71 1021.85 1020.92 1020.14 1018.31 1018.00 1017.51 1016.76 1015.36 1013.54 1012.41 1011.60 1011.00 1010.10 1009.50 1009.09 1008.69 1008.73 1009.06 1009.55 1009.92 1010.31 1010.87 1011.87 1012.52 1012.99 1013.71 1014.40
1025.54 1025.99 1026.59 1027.14 1026.88 1026.49 1025.49 1024.73 1024.39 1024.14 1023.32 1023.09 1023.26 1023.51 1023.36 1023.35 1023.22 1022.84 1022.42 1021.95 1021.36 1021.18 1020.02 1018.82 1017.77 1016.45 1015.03 1013.58 1012.38 1011.66 1011.29 1010.35 1009.71 1009.44 1009.57 1009.88 1010.48 1010.59 1011.23 1011.86 1012.43 1013.01 1013.55 1014.05 1014.56
Wind_Speed
10 10 10 10 9 9 10 9 9 9 9 10 11 11 12 14 16 4 7 12 8 13 5 7 5 5 3 4 4 2 6 13 11 9 3 2 2 2 1 6 3 4 3 4 16
10 10 11 11 11 9 9 10 9 9 10 10 10 11 12 15 7 7 12 14 15 14 7 4 8 8 5 5 5 7 10 19 5 11 4 3 2 5 2 3 5 2 2 15 19
11 11 10 11 11 11 9 10 9 9 10 10 10 11 12 10 6 6 6 9 14 6 5 2 6 7 9 9 8 7 14 11 9 10 4 2 6 2 5 4 7 7 8 15 19
12 10 10 10 11 11 8 9 8 9 10 10 10 11 11 3 7 3 5 16 15 9 1 4 2 5 5 11 11 11 9 14 9 5 3 7 4 4 6 7 8 13 14 14 19
10 9 9 9 9 9 8 8 8 9 10 10 9 7 3 2 12 6 15 12 8 6 5 4 7 7 13 6 11 20 12 12 15 13 7 6 10 7 7 10 4 11 20 19 16
7 6 7 7 7 7 7 8 9 10 10 9 8 4 2 10 7 6 5 6 7 3 4 4 4 8 12 14 14 6 17 18 9 15 11 16 11 7 6 3 10 17 23 22 19
3 3 4 4 5 6 6 8 10 9 9 7 6 1 6 20 4 6 6 5 4 4 5 4 4 5 6 11 14 12 16 12 15 7 9 12 17 25 13 6 11 19 21 18 17
3 1 1 3 4 4 7 9 9 8 7 7 5 0 9 6 5 8 3 5 7 7 5 7 6 5 4 11 10 10 7 14 11 12 8 12 24 19 19 9 10 13 15 14 12
4 4 4 3 3 5 8 8 7 8 8 8 1 2 11 9 4 6 5 7 7 5 6 7 4 7 6 13 13 12 4 13 9 12 8 21 13 16 17 16 13 14 16 15 10
6 6 4 3 5 6 9 9 6 5 4 2 1 2 5 5 5 5 7 9 8 3 4 6 5 7 10 15 14 13 13 5 9 5 11 15 17 7 11 19 17 15 13 14 14
6 5 4 4 4 7 6 5 7 5 4 5 6 5 13 8 7 6 4 4 3 4 5 5 6 16 25 19 20 13 10 16 9 5 5 15 13 16 16 14 14 16 16 15 17
6 6 5 5 8 9 4 5 3 3 11 8 12 9 12 5 7 9 1 3 3 7 4 6 16 21 15 18 22 13 14 10 3 6 3 9 19 20 25 11 14 17 16 19 14
6 7 7 7 6 6 4 3 5 3 4 9 6 5 8 2 6 15 5 4 7 12 13 16 16 11 16 20 23 20 17 12 4 1 10 3 12 17 22 8 15 16 22 19 20
7 8 9 9 6 1 3 6 5 1 5 8 5 5 4 3 7 7 6 6 5 7 13 13 14 17 21 18 14 14 14 8 8 3 5 10 7 15 22 19 14 16 11 17 18
9 10 9 7 2 3 4 5 3 5 5 6 7 3 7 3 8 5 5 6 9 9 5 7 9 15 21 19 18 7 20 11 4 4 1 7 6 4 23 22 15 17 20 16 15
9 12 7 4 2 1 5 2 4 8 8 8 5 8 10 3 4 7 5 4 3 5 9 12 7 7 5 16 16 15 11 7 3 2 5 11 12 7 19 34 20 13 18 18 15
8 8 5 2 3 6 4 4 7 5 5 10 6 9 11 6 7 5 6 6 5 8 4 3 1 2 9 14 13 8 6 4 3 2 6 2 11 5 11 26 23 12 15 14 14
10 5 4 1 4 4 3 7 6 4 6 5 6 12 4 8 4 8 10 8 3 12 7 6 1 3 2 2 7 10 5 4 5 1 4 2 7 3 7 19 21 12 15 15 13
6 3 3 4 5 2 7 6 8 6 4 7 11 5 8 5 2 7 5 7 5 11 6 6 4 2 6 5 7 8 5 4 7 2 4 3 2 6 7 15 13 13 13 14 14
2 3 3 7 5 5 7 4 3 3 3 4 1 2 4 7 8 8 6 4 12 12 10 5 6 7 2 7 2 3 10 6 2 4 3 3 2 2 2 11 16 14 14 12 13
4 4 3 6 4 6 4 6 5 4 2 3 3 5 5 6 4 3 8 8 12 16 12 7 5 4 1 5 3 3 3 5 3 3 3 2 1 4 8 5 16 11 11 12 12
3 3 4 3 6 3 1 4 4 3 1 2 2 4 4 5 5 3 3 6 14 14 11 4 6 4 4 7 5 4 4 4 3 4 1 1 2 7 4 5 13 12 10 10 11
2 4 3 4 3 3 6 4 3 2 2 3 3 2 1 4 6 2 4 8 11 10 13 8 5 6 5 4 4 5 6 3 2 1 2 2 2 6 7 10 10 13 11 10 11
4 3 6 5 1 3 1 4 5 2 2 1 4 4 2 4 3 7 11 6 16 7 16 5 4 4 5 4 4 4 6 5 2 2 3 4 3 4 5 9 9 9 9 9 10
4 1 4 4 5 3 1 3 3 4 2 1 3 0 3 4 6 5 6 14 10 12 10 8 6 9 7 4 3 4 8 9 6 4 4 2 4 2 3 6 5 9 9 10 10
5 4 3 2 2 4 2 2 2 4 2 2 2 5 3 3 4 9 10 7 4 13 11 9 4 6 5 9 8 4 7 4 4 4 4 4 6 4 6 8 6 7 8 8 8
2 1 4 3 1 2 2 2 2 4 3 3 2 5 5 5 4 8 9 8 7 7 10 7 8 6 5 6 8 5 6 5 2 4 4 6 4 2 4 6 5 6 5 7 8
Wind_Direction
313 305 293 289 287 294 300 294 297 296 301 309 317 321 323 323 321 299 255 231 231 274 299 324 303 286 259 235 227 192 220 227 209 196 186 346 290 235 350 119 38 170 170 228 138
295 295 298 301 288 285 286 287 288 291 295 298 309 317 324 328 301 252 251 270 275 282 294 340 307 337 268 229 214 205 223 225 208 225 208 303 304 283 214 165 200 119 317 135 146
300 293 287 292 301 287 284 291 296 290 288 294 304 319 329 341 320 242 178 18 359 319 247 254 286 286 261 255 193 208 239 223 209 238 240 242 305 249 226 249 212 171 155 168 156
292 294 294 286 294 290 284 283 292 289 293 297 305 319 334 9 291 241 292 322 339 323 201 180 252 253 240 242 238 244 221 232 212 223 197 247 285 274 245 231 255 131 158 172 170
282 281 278 284 285 284 280 285 293 292 286 288 295 318 15 284 251 285 307 320 324 344 220 177 220 253 250 274 266 247 239 222 229 230 212 239 249 257 282 284 246 145 160 187 205
280 272 271 277 282 283 282 286 289 285 282 283 289 318 138 263 253 263 294 318 278 286 254 211 221 215 278 264 257 287 233 243 229 224 233 238 248 253 246 246 167 163 168 193 196
311 275 276 273 288 286 281 281 286 286 287 285 302 271 253 251 238 310 300 248 230 228 255 227 261 215 302 262 259 269 236 236 225 218 222 224 246 239 242 179 186 187 171 187 185
40 28 343 328 316 294 284 286 286 287 283 294 299 298 254 262 272 281 241 261 250 236 221 256 224 242 235 294 281 226 226 212 196 196 205 170 248 235 234 179 195 194 177 185 184
43 51 36 0 305 294 295 293 303 292 281 284 10 146 267 300 279 261 198 275 265 255 229 235 189 231 269 258 247 215 227 221 185 190 179 201 245 235 221 206 193 191 194 183 172
40 31 10 346 320 324 309 299 285 319 318 128 139 344 271 277 283 274 262 256 247 288 286 189 197 216 230 232 227 212 218 184 211 198 210 227 225 266 218 201 199 188 195 186 183
32 21 357 333 1 358 357 16 15 350 17 228 238 247 285 269 301 264 268 321 212 173 209 198 221 225 228 253 252 235 215 213 184 210 207 229 247 243 255 214 188 186 191 194 200
22 17 11 17 17 20 56 60 52 267 302 248 255 251 263 253 293 283 152 230 208 239 218 238 237 239 242 250 256 184 191 189 254 207 188 252 243 233 231 241 204 183 179 202 185
32 33 359 338 3 49 76 38 333 350 273 296 235 251 265 185 265 284 169 238 238 259 242 230 236 205 264 240 256 209 215 210 200 305 225 300 276 229 220 236 231 199 189 190 184
24 6 345 326 46 355 70 327 345 84 42 283 327 284 317 292 274 246 215 201 268 288 255 227 228 229 261 232 228 166 193 173 180 182 221 151 281 210 202 214 235 200 182 192 188
11 350 347 35 214 61 295 321 329 59 5 272 293 281 313 213 287 315 223 251 247 263 180 292 245 237 233 207 218 183 170 152 149 198 330 202 239 263 190 201 224 191 191 195 180
6 358 356 19 20 138 306 322 62 42 266 320 311 324 336 274 280 289 294 240 215 237 215 243 248 236 248 193 190 127 112 137 122 155 234 194 197 208 193 200 215 199 184 185 169
351 352 18 18 297 319 325 53 35 122 323 309 325 336 322 298 309 339 315 350 342 314 348 264 217 213 261 150 162 153 147 170 167 152 245 199 185 287 234 188 202 194 189 179 167
333 354 338 126 309 320 43 51 85 236 255 316 322 314 290 0 311 327 328 348 22 338 301 325 349 223 27 295 167 153 172 157 140 210 312 319 205 238 305 195 176 180 178 170 154
6 348 339 309 330 38 69 54 202 204 272 326 320 0 317 346 2 349 347 313 348 358 319 321 265 154 72 279 160 162 152 170 80 236 254 227 264 276 304 168 136 137 153 158 151
42 3 281 330 7 56 74 243 214 222 325 47 76 113 307 314 356 4 315 323 347 341 340 291 292 7 326 341 90 174 164 105 108 242 238 209 127 281 35 155 149 155 162 141 127
54 16 268 336 60 45 136 227 263 240 235 129 207 297 269 305 316 304 306 307 7 333 335 309 302 327 23 14 2 129 117 95 157 221 269 170 60 232 295 149 157 131 129 139 132
73 352 319 19 49 77 135 208 247 291 345 303 203 287 230 309 300 297 309 288 343 333 341 294 312 322 316 312 316 13 57 82 151 265 182 256 68 335 265 112 110 111 119 114 116
53 279 336 62 84 328 309 301 286 318 2 341 285 184 212 310 312 248 322 297 329 336 343 337 331 323 11 2 10 46 1 311 103 351 340 7 39 7 95 89 106 121 123 116 111
75 352 334 38 179 148 290 289 316 283 251 214 286 313 14 321 256 302 320 305 328 341 346 309 292 355 7 326 316 13 342 15 79 54 347 50 348 40 84 110 115 111 104 110 109
56 353 155 309 323 324 340 184 290 322 235 106 326 97 298 295 314 302 322 323 317 5 356 13 348 340 299 311 324 338 2 1 28 44 37 13 101 358 108 119 108 116 121 120 122
120 144 207 251 245 293 332 321 297 332 293 285 161 289 297 280 221 313 333 349 336 332 345 348 339 321 305 355 360 349 324 347 38 11 35 100 62 15 65 91 108 127 129 126 132
241 53 112 296 269 57 246 288 353 343 269 206 79 343 293 259 248 289 291 291 280 324 325 332 340 346 310 329 333 34 346 322 64 76 8 31 339 73 91 105 136 139 141 147 153